Volver al catálogo

COSMOS 1088

ActivoMilitarLEO
NORAD 11303·PAYLOAD·🇷🇺 Russia

Lanzado Mar 15, 1979 desde Plesetsk Cosmodrome

Loading…

Próximos Pases (próximas 24 horas)

TLE

ActualizadoSource: Space-Track

Época: Sep 14, 2026, 12:29 UTC

1 11303U 79024H   26257.52075523 -.00000016  00000-0 -29396-5 0  9994
2 11303  74.0310 278.6397 0052122 221.9938 305.9336 12.40162119150555

Sigue COSMOS 1088 en tiempo real con AllMySat

Download on the App Store